Weather History for KBKE - February, 2014

Change the Weather History Date:

Thursday, February 20, 2014

  Actual Average Record
Temperature  
Mean Temperature 31 °F 31 °F  
Max Temperature 38 °F 42 °F 59 °F (1968)
Min Temperature 23 °F 20 °F 0 °F (1957)
Degree Days  
Heating Degree Days 34 34  
Month to date heating degree days 768 732  
Since 1 July heating degree days 5314 5255  
Cooling Degree Days 0 0  
Month to date cooling degree days 0 0  
Year to date cooling degree days 0 0  
Moisture  
Dew Point 27 °F    
Average Humidity 88    
Maximum Humidity 100    
Minimum Humidity 75    
Precipitation  
Precipitation T in 0.02 in 0.19 in (2005)
Month to date precipitation 1.08 0.41  
Year to date precipitation 1.58 1.21  
Sea Level Pressure  
Sea Level Pressure 30.14 in    
Wind  
Wind Speed 3 mph (NE)    
Max Wind Speed 10 mph    
Max Gust Speed 12 mph    
Visibility 9 miles    
Events Rain , Snow    
T = Trace of Precipitation, MM = Missing Value Source: NWS Daily Summary

Daily Weather History Graph

Daily Weather History Graph

Search for Another Location

Airport or City:

Trip Planner

Search our weather history database for the weather conditions in past years. The results will help you decide how hot, cold, wet, or windy it might be!

Date:

Astronomy

Feb. 20, 2014 Rise Set
Actual Time 6:43 AM PST 5:26 PM PST
Civil Twilight 6:14 AM PST 5:56 PM PST
Nautical Twilight 5:40 AM PST 6:30 PM PST
Astronomical Twilight 5:06 AM PST 7:04 PM PST
Moon 11:42 PM PST (2/20) 9:14 AM PST (2/20)
Length of Visible Light 11h 42m
Length of Day
10h 42m
Waning Gibbous, 70% of the Moon is Illuminated
Feb 20
Waning Gibbous
Feb 22
Last Quarter
Mar 1
New
Mar 8
First Quarter
Mar 16
Full

Hourly Weather History & Observations

Time (PST) Temp. Windchill Dew Point Humidity Pressure Visibility Wind Dir Wind Speed Gust Speed Precip Events Conditions
12:53 AM 28.9 °F 20.4 °F 24.1 °F 82% 30.20 in 10.0 mi East 9.2 mph - N/A   Overcast
1:53 AM 27.0 °F 20.5 °F 23.0 °F 85% 30.22 in 10.0 mi East 5.8 mph - N/A   Mostly Cloudy
2:53 AM 28.0 °F 20.8 °F 24.1 °F 85% 30.22 in 10.0 mi ESE 6.9 mph - N/A   Mostly Cloudy
3:53 AM 25.0 °F 20.7 °F 23.0 °F 92% 30.22 in 10.0 mi NNW 3.5 mph - N/A   Overcast
4:53 AM 25.0 °F - 21.9 °F 88% 30.22 in 10.0 mi Calm Calm - N/A   Overcast
5:53 AM 26.1 °F - 24.1 °F 92% 30.21 in 10.0 mi Calm Calm - N/A   Overcast
6:53 AM 27.0 °F - 24.1 °F 89% 30.19 in 10.0 mi Calm Calm - N/A   Overcast
7:53 AM 28.9 °F - 25.0 °F 85% 30.19 in 10.0 mi Calm Calm - N/A   Overcast
8:53 AM 30.0 °F - 26.1 °F 85% 30.17 in 10.0 mi Calm Calm - N/A   Overcast
9:53 AM 32.0 °F - 26.1 °F 79% 30.16 in 10.0 mi Calm Calm - N/A   Overcast
10:53 AM 33.1 °F 30.0 °F 27.0 °F 78% 30.17 in 10.0 mi WNW 3.5 mph - N/A   Overcast
11:53 AM 35.1 °F 32.2 °F 28.0 °F 76% 30.16 in 10.0 mi Variable 3.5 mph - N/A   Overcast
12:53 PM 36.0 °F - 28.9 °F 76% 30.14 in 10.0 mi Calm Calm - N/A   Overcast
1:53 PM 37.0 °F - 30.0 °F 76% 30.14 in 10.0 mi Calm Calm - N/A   Overcast
2:40 PM 36.0 °F 33.3 °F 32.0 °F 86% 30.07 in 9.0 mi Variable 3.5 mph - 0.00 in Snow Light Snow
2:53 PM 36.0 °F 33.3 °F 32.0 °F 86% 30.14 in 10.0 mi Variable 3.5 mph - 0.00 in Rain Light Rain
3:33 PM 36.0 °F 29.0 °F 32.0 °F 86% 30.08 in 10.0 mi NE 9.2 mph - 0.00 in   Overcast
3:45 PM 36.0 °F 30.3 °F 32.0 °F 86% 30.07 in 10.0 mi ENE 6.9 mph - 0.00 in   Overcast
3:53 PM 36.0 °F 33.3 °F 32.0 °F 86% 30.15 in 10.0 mi East 3.5 mph - 0.00 in   Overcast
4:04 PM 36.0 °F 31.1 °F 32.0 °F 86% 30.08 in 10.0 mi SSE 5.8 mph - N/A   Overcast
4:22 PM 36.0 °F 31.1 °F 32.0 °F 86% 30.07 in 10.0 mi SSW 5.8 mph - N/A   Overcast
4:53 PM 35.1 °F 32.2 °F 30.9 °F 85% 30.15 in 10.0 mi West 3.5 mph - N/A   Overcast
5:14 PM 34.0 °F 31.0 °F 30.9 °F 89% 30.07 in 10.0 mi West 3.5 mph - 0.00 in   Overcast
5:22 PM 33.1 °F 30.0 °F 30.9 °F 92% 30.07 in 10.0 mi WSW 3.5 mph - 0.00 in   Overcast
5:53 PM 30.9 °F - 30.0 °F 96% 30.17 in 10.0 mi Calm Calm - 0.00 in   Overcast
6:01 PM 32.0 °F 27.5 °F 30.0 °F 92% 30.08 in 10.0 mi SSW 4.6 mph - N/A   Overcast
6:53 PM 30.9 °F 27.5 °F 30.0 °F 96% 30.17 in 10.0 mi NE 3.5 mph - N/A   Overcast
7:53 PM 28.9 °F 23.9 °F 28.0 °F 96% 30.18 in 8.0 mi North 4.6 mph - N/A   Overcast
8:53 PM 28.9 °F - 27.0 °F 92% 30.17 in 9.0 mi Calm Calm - N/A   Mostly Cloudy
9:53 PM 28.0 °F 21.7 °F 27.0 °F 96% 30.17 in 5.0 mi East 5.8 mph - N/A   Partly Cloudy
10:53 PM 26.1 °F 21.9 °F 26.1 °F 100% 30.16 in 10.0 mi SSW 3.5 mph - N/A   Clear
11:31 PM 24.1 °F 19.7 °F 23.0 °F 96% 30.09 in 1.8 mi NE 3.5 mph - N/A   Clear
11:34 PM 23.0 °F 17.0 °F 21.9 °F 96% 30.09 in 0.8 mi North 4.6 mph - N/A   Mist
11:49 PM 24.8 °F 19.1 °F 24.8 °F 100% 30.08 in 1.2 mi North 4.6 mph - N/A   Scattered Clouds
11:53 PM 24.1 °F 19.7 °F 23.0 °F 96% 30.16 in 1.8 mi NE 3.5 mph - N/A   Scattered Clouds
11:57 PM 23.0 °F - 21.9 °F 96% 30.08 in 3.0 mi Calm Calm - N/A   Scattered Clouds